"Pseudo-MPEC" for P11Crwu

Created 2022 Dec 24 3:22:23 UT using Find_Orb

Click here for an explanation of pseudo-MPECs

 
 Astrometry: 
     P11Crwu* C2022 12 02yWMd!wx],1yV6/bAstrometryeD6V_e5Aypw2^dfokPOl'()39(DF51
     P11Crwu  C2022 12 02)k,redacted;njB%clickODCD4u0s9vB+rQ-[Am=?vhere/KDyHIF51
     P11Crwu  C2022 12 02($HFF[wV.jfor-POg'uVpIY5yB:DuG#Ao$C;9tLG3explanationF51

Station data:
(F51) Pan-STARRS 1, Haleakala  (N20.707234 W156.255910)  US/Hawaii.
   Observers J. Bulger, T. Lowe, A. Schultz, M. Willman. Measurers K.
   Chambers, S. Chastel, T. de Boer, L. Denneau, J. Fairlamb, H. Flewelling,
   M. Huber, C.-C. Lin, E. Magnier, Y. Ramanjooloo, R. Wainscoat, R. Weryk.
   1.8-m Ritchey-Chrétien + CCD.

Orbital elements:  P11Crwu
   Perihelion 2022 Mar 30.76192 +/- 173 TT = 18:17:09 (JD 2459669.26192)
Epoch 2022 Dec  2.0 TT = JDT 2459915.5   Earth MOID: 0.3555   Ma: 0.0248
M 105.89129985 +/- 110              (J2000 ecliptic)             AutoNEOCP
n   0.43003624 +/- 0.468            Peri.   54.81818 +/- 90
a   1.73833179 +/- 1.26             Node   273.57575 +/- 52
e   0.2576450 +/- 0.269             Incl.   21.91098 +/- 35
P   2.29/837.12d           H 18.76  G  0.15   U 12.2  SR
q 1.29045919 +/- 1.06    Q 2.18620438 +/- 38.8
From 3 observations 2022 Dec. 2 (30.6 min); mean residual 0".04
Residuals in arcseconds: 
221202 F51  .03+  .02-    221202 F51  .06-  .03+    221202 F51  .03+  .02-    

Ephemerides (geocentric):
Date (UTC) HH   RA             Dec           delta  r     elong  mag " sig PA
---- --------  ------------   ------------  ------ ------ -----  --- --------
2022 12 24 03  07 54 17.653   +11 42 51.61  1.0854 2.0089 152.3 21.3  57d 171
2022 12 24 04  07 54 13.877   +11 42 24.84  1.0853 2.0090 152.3 21.3  57d 171
2022 12 24 05  07 54 10.098   +11 41 58.07  1.0852 2.0091 152.4 21.3  58d 171
2022 12 24 06  07 54 06.316   +11 41 31.32  1.0850 2.0092 152.4 21.3  58d 171
2022 12 24 07  07 54 02.531   +11 41 04.58  1.0849 2.0093 152.5 21.3  58d 171
2022 12 24 08  07 53 58.742   +11 40 37.85  1.0848 2.0094 152.5 21.3  58d 171
2022 12 24 09  07 53 54.951   +11 40 11.13  1.0847 2.0095 152.6 21.3  58d 171
2022 12 24 10  07 53 51.156   +11 39 44.43  1.0846 2.0096 152.6 21.3  58d 171
2022 12 24 11  07 53 47.358   +11 39 17.73  1.0845 2.0097 152.7 21.3  58d 171
2022 12 24 12  07 53 43.558   +11 38 51.05  1.0843 2.0098 152.7 21.3  58d 171
2022 12 24 13  07 53 39.754   +11 38 24.37  1.0842 2.0099 152.8 21.3  58d 171
2022 12 24 14  07 53 35.947   +11 37 57.71  1.0841 2.0100 152.8 21.3  58d 171
2022 12 24 15  07 53 32.137   +11 37 31.06  1.0840 2.0101 152.9 21.3  58d 171
2022 12 24 16  07 53 28.325   +11 37 04.42  1.0839 2.0102 152.9 21.3  58d 171
2022 12 24 17  07 53 24.509   +11 36 37.79  1.0838 2.0103 153.0 21.3  58d 171
2022 12 24 18  07 53 20.690   +11 36 11.17  1.0836 2.0104 153.0 21.3  58d 171
2022 12 24 19  07 53 16.868   +11 35 44.57  1.0835 2.0105 153.1 21.3  58d 171
2022 12 24 20  07 53 13.043   +11 35 17.97  1.0834 2.0105 153.1 21.3  58d 171
2022 12 24 21  07 53 09.215   +11 34 51.39  1.0833 2.0106 153.2 21.2  58d 171
2022 12 24 22  07 53 05.385   +11 34 24.82  1.0832 2.0107 153.2 21.2  58d 171
2022 12 24 23  07 53 01.551   +11 33 58.26  1.0831 2.0108 153.3 21.2  58d 171
2022 12 25 00  07 52 57.714   +11 33 31.71  1.0830 2.0109 153.3 21.2  59d 171
2022 12 25 01  07 52 53.874   +11 33 05.17  1.0829 2.0110 153.4 21.2  59d 171
2022 12 25 02  07 52 50.032   +11 32 38.65  1.0828 2.0111 153.4 21.2  59d 171
2022 12 25 03  07 52 46.186   +11 32 12.13  1.0826 2.0112 153.5 21.2  59d 171
2022 12 25 04  07 52 42.338   +11 31 45.63  1.0825 2.0113 153.5 21.2  59d 171
2022 12 25 05  07 52 38.486   +11 31 19.14  1.0824 2.0114 153.6 21.2  59d 171
2022 12 25 06  07 52 34.632   +11 30 52.66  1.0823 2.0115 153.6 21.2  59d 171
2022 12 25 07  07 52 30.775   +11 30 26.19  1.0822 2.0116 153.7 21.2  59d 171
2022 12 25 08  07 52 26.915   +11 29 59.73  1.0821 2.0117 153.7 21.2  59d 171
2022 12 25 09  07 52 23.052   +11 29 33.29  1.0820 2.0118 153.8 21.2  59d 171
2022 12 25 10  07 52 19.186   +11 29 06.85  1.0819 2.0119 153.8 21.2  59d 171
2022 12 25 11  07 52 15.317   +11 28 40.43  1.0818 2.0120 153.9 21.2  59d 171
2022 12 25 12  07 52 11.445   +11 28 14.02  1.0817 2.0121 153.9 21.2  59d 171
2022 12 25 13  07 52 07.571   +11 27 47.63  1.0816 2.0122 154.0 21.2  59d 171
2022 12 25 14  07 52 03.693   +11 27 21.24  1.0815 2.0123 154.0 21.2  59d 171
2022 12 25 15  07 51 59.813   +11 26 54.86  1.0814 2.0124 154.1 21.2  59d 171
2022 12 25 16  07 51 55.930   +11 26 28.50  1.0813 2.0125 154.1 21.2  59d 171
2022 12 25 17  07 51 52.045   +11 26 02.15  1.0812 2.0126 154.2 21.2  59d 171
2022 12 25 18  07 51 48.156   +11 25 35.81  1.0811 2.0127 154.2 21.2  59d 171
2022 12 25 19  07 51 44.264   +11 25 09.49  1.0810 2.0128 154.3 21.2  59d 171
2022 12 25 20  07 51 40.370   +11 24 43.17  1.0809 2.0128 154.3 21.2  59d 171
2022 12 25 21  07 51 36.473   +11 24 16.87  1.0808 2.0129 154.4 21.2  59d 171
2022 12 25 22  07 51 32.574   +11 23 50.58  1.0807 2.0130 154.4 21.2  59d 171
2022 12 25 23  07 51 28.671   +11 23 24.30  1.0806 2.0131 154.4 21.2  59d 171
2022 12 26 00  07 51 24.766   +11 22 58.03  1.0805 2.0132 154.5 21.2  59d 171
2022 12 26 01  07 51 20.858   +11 22 31.78  1.0804 2.0133 154.5 21.2  59d 171
2022 12 26 02  07 51 16.947   +11 22 05.53  1.0803 2.0134 154.6 21.2  58d 169